Weather History for KMVY - September, 2014

Change the Weather History Date:

Sunday, September 7, 2014

  Actual Average Record
Temperature  
Mean Temperature 66 °F -  
Max Temperature 78 °F 74 °F 87 °F (1980)
Min Temperature 51 °F 58 °F 34 °F (2000)
Cooling Degree Days 1    
Growing Degree Days 16 (Base 50)    
Moisture  
Dew Point 60 °F    
Average Humidity 78    
Maximum Humidity 100    
Minimum Humidity 48    
Precipitation  
Precipitation 0.00 in - - ()
Sea Level Pressure  
Sea Level Pressure 30.00 in    
Wind  
Wind Speed 10 mph (North)    
Max Wind Speed 17 mph    
Max Gust Speed 24 mph    
Visibility 10 miles    
Events      
Averages and records for this station are not official NWS values.
T = Trace of Precipitation, MM = Missing Value Source: NWS Daily Summary

Daily Weather History Graph

Daily Weather History Graph

Search for Another Location

Airport or City:

Trip Planner

Search our weather history database for the weather conditions in past years. The results will help you decide how hot, cold, wet, or windy it might be!

Date:

Astronomy

Sep. 07, 2014 Rise Set
Actual Time 6:14 AM EDT 7:05 PM EDT
Civil Twilight 5:46 AM EDT 7:33 PM EDT
Nautical Twilight 5:13 AM EDT 8:06 PM EDT
Astronomical Twilight 4:38 AM EDT 8:41 PM EDT
Moon 6:03 PM EDT (9/7) 4:22 AM EDT (9/7)
Length of Visible Light 13h 46m
Length of Day
12h 50m
Waxing Gibbous, 97% of the Moon is Illuminated
Sep 7
Waxing Gibbous
Sep 8
Full
Sep 15
Last Quarter
Sep 24
New
Oct 1
First Quarter

Hourly Weather History & Observations

Time (EDT) Temp. Dew Point Humidity Pressure Visibility Wind Dir Wind Speed Gust Speed Precip Events Conditions
12:26 AM 71.1 °F 71.1 °F 100% 29.88 in 5.0 mi NNW 5.8 mph - N/A   Mostly Cloudy
12:53 AM 72.0 °F 72.0 °F 100% 29.88 in 6.0 mi North 8.1 mph - N/A   Mostly Cloudy
1:53 AM 71.1 °F 63.0 °F 75% 29.88 in 10.0 mi North 13.8 mph - N/A   Overcast
2:30 AM 71.1 °F 61.0 °F 70% 29.90 in 10.0 mi North 13.8 mph 24.2 mph N/A   Overcast
2:38 AM 70.0 °F 60.1 °F 71% 29.91 in 10.0 mi North 17.3 mph 21.9 mph N/A   Overcast
2:53 AM 70.0 °F 57.9 °F 65% 29.91 in 10.0 mi North 15.0 mph 23.0 mph N/A   Overcast
3:53 AM 68.0 °F 60.1 °F 76% 29.90 in 10.0 mi North 10.4 mph - 0.00 in   Overcast
4:53 AM 64.9 °F 62.1 °F 90% 29.92 in 10.0 mi NNE 12.7 mph - 0.00 in   Overcast
5:17 AM 64.9 °F 62.1 °F 90% 29.93 in 10.0 mi North 11.5 mph - N/A   Overcast
5:47 AM 64.4 °F 62.6 °F 94% 29.94 in 10.0 mi North 9.2 mph - N/A   Overcast
5:53 AM 64.9 °F 62.1 °F 90% 29.94 in 10.0 mi North 12.7 mph - N/A   Overcast
6:15 AM 64.9 °F 62.1 °F 90% 29.95 in 10.0 mi North 9.2 mph - N/A   Overcast
6:53 AM 64.9 °F 61.0 °F 87% 29.98 in 10.0 mi North 9.2 mph - N/A   Overcast
7:53 AM 64.9 °F 62.1 °F 90% 30.00 in 10.0 mi North 5.8 mph - 0.00 in   Overcast
8:53 AM 68.0 °F 62.1 °F 81% 30.02 in 10.0 mi NNE 9.2 mph - N/A   Overcast
9:53 AM 69.1 °F 61.0 °F 75% 30.04 in 10.0 mi North 9.2 mph - N/A   Scattered Clouds
11:53 AM 75.9 °F 59.0 °F 56% 30.06 in 10.0 mi North 9.2 mph - N/A   Clear
12:53 PM 77.0 °F 60.1 °F 56% 30.06 in 10.0 mi NW 5.8 mph - N/A   Scattered Clouds
1:53 PM 75.9 °F 55.0 °F 48% 30.06 in 10.0 mi NNE 9.2 mph - N/A   Partly Cloudy
2:53 PM 73.0 °F 59.0 °F 61% 30.06 in 10.0 mi ENE 9.2 mph - N/A   Mostly Cloudy
3:53 PM 75.9 °F 57.9 °F 54% 30.06 in 10.0 mi NNE 12.7 mph - N/A   Scattered Clouds
5:53 PM 72.0 °F 54.0 °F 53% 30.09 in 10.0 mi NE 8.1 mph - N/A   Clear
6:53 PM 66.9 °F 60.1 °F 79% 30.12 in 10.0 mi ESE 8.1 mph - N/A   Clear
7:53 PM 63.0 °F 59.0 °F 87% 30.14 in 10.0 mi East 4.6 mph - N/A   Clear
8:53 PM 55.9 °F 54.0 °F 93% 30.17 in 10.0 mi Calm Calm - N/A   Clear
9:53 PM 51.1 °F 51.1 °F 100% 30.18 in 10.0 mi WNW 3.5 mph - N/A   Clear